Peoria, IL

5:46 AM CDT on October 21, 2017 (GMT -0500)
Greater Peoria Regional

Weather History for KPIA - June, 2013

Change the Weather History Date:

Friday, June 21, 2013

  Actual Average Record
Temperature  
Mean Temperature 80 °F 74 °F  
Max Temperature 90 °F 84 °F 99 °F (1988)
Min Temperature 69 °F 63 °F 43 °F (1992)
Degree Days  
Heating Degree Days 0 0  
Month to date heating degree days 18 17  
Since 1 June heating degree days 18 17  
Since 1 July heating degree days 5831 5830  
Cooling Degree Days 15 9  
Month to date cooling degree days 122 135  
Year to date cooling degree days 229 216  
Since 1 June cooling degree days 122 135  
Growing Degree Days 30 (Base 50)    
Moisture  
Dew Point 66 °F    
Average Humidity 71    
Maximum Humidity 90    
Minimum Humidity 52    
Precipitation  
Precipitation 0.04 in 0.12 in 1.95 in (1974)
Month to date precipitation 0.99 2.46  
Year to date precipitation 28.51 16.79  
Snow  
Snow 0.00 in 0.00 in 0.00 in ()
Month to date snowfall 0.0 0.0  
Since 1 June snowfall 0.0 0.0  
Since 1 July snowfall 22.7 24.6  
Snow Depth 0.00 in    
Sea Level Pressure  
Sea Level Pressure 30.05 in    
Wind  
Wind Speed 11 mph (SSE)    
Max Wind Speed 28 mph    
Max Gust Speed 40 mph    
Visibility 10 miles    
Events Rain , Thunderstorm    
T = Trace of Precipitation, MM = Missing Value Source: NWS Daily Summary

Daily Weather History Graph

Daily Weather History Graph

Search for Another Location

Airport or City:

Trip Planner

Search our weather history database for the weather conditions in past years. The results will help you decide how hot, cold, wet, or windy it might be!

Date:

Astronomy

Jun. 21, 2013 Rise Set
Actual Time 5:27 AM CDT 8:33 PM CDT
Civil Twilight 4:54 AM CDT 9:06 PM CDT
Nautical Twilight 4:11 AM CDT 9:49 PM CDT
Astronomical Twilight 3:21 AM CDT 10:39 PM CDT
Moon 6:43 PM CDT 3:43 AM CDT
Length of Visible Light 16h 12m
Length of Day
15h 05m
Waxing Gibbous, 95% of the Moon is Illuminated
Jun 21
Waxing Gibbous
Jun 23
Full
Jun 29
Last Quarter
Jul 8
New
Jul 15
First Quarter

Hourly Weather History & Observations

Time (CDT) Temp. Heat Index Dew Point Humidity Pressure Visibility Wind Dir Wind Speed Gust Speed Precip Events Conditions
12:54 AM 78.1 °F - 60.1 °F 54% 30.07 in 10.0 mi SSE 8.1 mph - N/A   Clear
1:54 AM 77.0 °F - 61.0 °F 58% 30.06 in 10.0 mi SSE 9.2 mph - N/A   Clear
2:54 AM 75.9 °F - 62.1 °F 62% 30.06 in 10.0 mi South 13.8 mph - N/A   Scattered Clouds
3:54 AM 75.0 °F - 63.0 °F 66% 30.06 in 10.0 mi South 11.5 mph - N/A   Mostly Cloudy
4:54 AM 73.9 °F - 64.0 °F 71% 30.06 in 10.0 mi South 10.4 mph - N/A   Clear
5:54 AM 73.0 °F - 64.0 °F 73% 30.07 in 9.0 mi South 6.9 mph - N/A   Clear
6:54 AM 75.0 °F - 66.0 °F 73% 30.07 in 10.0 mi South 9.2 mph - N/A   Clear
7:54 AM 77.0 °F - 66.9 °F 71% 30.06 in 10.0 mi South 13.8 mph - N/A   Clear
8:54 AM 82.0 °F 85.5 °F 69.1 °F 65% 30.05 in 10.0 mi South 13.8 mph 20.7 mph N/A   Clear
9:54 AM 84.9 °F 88.8 °F 69.1 °F 59% 30.06 in 10.0 mi South 16.1 mph - N/A   Clear
10:54 AM 87.1 °F 92.0 °F 70.0 °F 57% 30.05 in 10.0 mi SSW 17.3 mph - N/A   Clear
11:54 AM 88.0 °F 92.9 °F 70.0 °F 55% 30.05 in 10.0 mi SSW 17.3 mph - N/A   Clear
12:54 PM 90.0 °F 95.4 °F 70.0 °F 52% 30.06 in 10.0 mi WSW 11.5 mph - N/A   Partly Cloudy
1:54 PM 87.1 °F 92.8 °F 71.1 °F 59% 30.08 in 10.0 mi North - - N/A   Mostly Cloudy
2:04 PM 75.9 °F - 63.0 °F 64% 30.09 in 10.0 mi North 16.1 mph 34.5 mph N/A Thunderstorm Thunderstorm
2:54 PM 71.1 °F - 66.0 °F 84% 30.07 in 4.0 mi ENE 16.1 mph - 0.02 in Rain , Thunderstorm Thunderstorms and Rain
3:31 PM 70.0 °F - 64.9 °F 84% 30.09 in 10.0 mi East 11.5 mph - 0.02 in   Scattered Clouds
3:54 PM 70.0 °F - 64.9 °F 84% 30.06 in 10.0 mi East 15.0 mph 23.0 mph 0.02 in   Clear
4:54 PM 70.0 °F - 66.0 °F 87% 30.02 in 10.0 mi SE 11.5 mph 20.7 mph N/A   Clear
5:54 PM 72.0 °F - 66.0 °F 81% 30.00 in 10.0 mi SSE 8.1 mph - N/A   Clear
6:54 PM 75.9 °F - 66.9 °F 74% 29.97 in 10.0 mi South 10.4 mph - N/A   Clear
7:54 PM 77.0 °F - 68.0 °F 74% 29.95 in 10.0 mi South 13.8 mph - N/A   Clear
8:54 PM 78.1 °F - 68.0 °F 71% 29.99 in 10.0 mi South 8.1 mph - N/A   Clear
9:54 PM 77.0 °F - 68.0 °F 74% 30.02 in 10.0 mi SSE 8.1 mph - N/A   Clear
10:54 PM 75.9 °F - 69.1 °F 79% 30.04 in 10.0 mi SE 4.6 mph - N/A   Clear
11:54 PM 75.0 °F - 69.1 °F 82% 30.03 in 10.0 mi South 3.5 mph - N/A   Clear